Time,TemperatureF,DewpointF,PressureIn,WindDirection,WindDirectionDegrees,WindSpeedMPH,WindSpeedGustMPH,Humidity,HourlyPrecipIn,Conditions,Clouds,dailyrainin,SoftwareType,DateUTC
2013-01-10 00:00:00,41.9,31.4,30.31,West,281,3.0,10.0,66,0.00,,,0.00,VWS V14.01,2013-01-10 05:00:00,
2013-01-10 00:01:00,42.0,31.5,30.31,WNW,290,3.0,3.0,66,0.00,,,0.00,VWS V14.01,2013-01-10 05:01:00,
2013-01-10 00:03:00,41.9,31.4,30.32,WNW,291,2.0,6.0,66,0.00,,,0.00,VWS V14.01,2013-01-10 05:03:00,
2013-01-10 00:08:00,41.9,31.4,30.32,WNW,290,3.0,10.0,66,0.00,,,0.00,VWS V14.01,2013-01-10 05:08:00,
2013-01-10 00:13:00,41.7,31.2,30.32,West,281,3.0,7.0,66,0.00,,,0.00,VWS V14.01,2013-01-10 05:13:00,
2013-01-10 00:18:00,41.7,30.8,30.33,WNW,287,3.0,8.0,65,0.00,,,0.00,VWS V14.01,2013-01-10 05:18:00,
2013-01-10 00:23:00,41.9,30.6,30.32,WNW,295,5.0,10.0,64,0.00,,,0.00,VWS V14.01,2013-01-10 05:23:00,
2013-01-10 00:28:00,41.8,30.5,30.32,WSW,257,5.0,9.0,64,0.00,,,0.00,VWS V14.01,2013-01-10 05:28:00,
2013-01-10 00:33:00,41.9,30.2,30.32,WNW,293,3.0,11.0,63,0.00,,,0.00,VWS V14.01,2013-01-10 05:33:00,
2013-01-10 00:38:00,41.6,30.3,30.32,WNW,290,5.0,8.0,64,0.00,,,0.00,VWS V14.01,2013-01-10 05:38:00,
2013-01-10 00:43:00,41.4,30.5,30.33,West,281,6.0,9.0,65,0.00,,,0.00,VWS V14.01,2013-01-10 05:43:00,
2013-01-10 00:48:00,41.3,30.4,30.33,West,270,3.0,10.0,65,0.00,,,0.00,VWS V14.01,2013-01-10 05:48:00,
2013-01-10 00:53:00,41.1,30.2,30.34,West,273,3.0,6.0,65,0.00,,,0.00,VWS V14.01,2013-01-10 05:53:00,
2013-01-10 00:58:00,40.9,30.1,30.34,West,267,1.0,6.0,65,0.00,,,0.00,VWS V14.01,2013-01-10 05:58:00,
2013-01-10 01:04:00,40.6,30.1,30.35,South,169,0.0,2.0,66,0.00,,CLR,0.00,VWS V14.01,2013-01-10 06:04:00,
2013-01-10 01:09:00,39.7,29.7,30.35,SSE,151,0.0,1.0,67,0.00,,CLR,0.00,VWS V14.01,2013-01-10 06:09:00,
2013-01-10 01:14:00,39.2,29.5,30.36,SSE,160,0.0,1.0,68,0.00,,CLR,0.00,VWS V14.01,2013-01-10 06:14:00,
2013-01-10 01:19:00,39.4,29.7,30.36,WSW,240,0.0,3.0,68,0.00,,CLR,0.00,VWS V14.01,2013-01-10 06:19:00,
2013-01-10 01:24:00,39.9,29.9,30.36,WSW,238,2.0,4.0,67,0.00,,CLR,0.00,VWS V14.01,2013-01-10 06:24:00,
2013-01-10 01:29:00,40.1,29.7,30.36,WSW,249,2.0,8.0,66,0.00,,CLR,0.00,VWS V14.01,2013-01-10 06:29:00,
2013-01-10 01:34:00,39.7,29.3,30.37,West,260,0.0,3.0,66,0.00,,CLR,0.00,VWS V14.01,2013-01-10 06:34:00,
2013-01-10 01:39:00,39.6,29.6,30.37,West,278,2.0,4.0,67,0.00,,CLR,0.00,VWS V14.01,2013-01-10 06:39:00,
2013-01-10 01:44:00,39.8,29.4,30.37,WNW,288,3.0,5.0,66,0.00,,CLR,0.00,VWS V14.01,2013-01-10 06:44:00,
2013-01-10 01:49:00,39.9,29.5,30.37,WNW,293,2.0,6.0,66,0.00,,CLR,0.00,VWS V14.01,2013-01-10 06:49:00,
2013-01-10 01:54:00,39.8,29.4,30.38,WNW,288,2.0,6.0,66,0.00,,CLR,0.00,VWS V14.01,2013-01-10 06:54:00,
2013-01-10 01:59:00,39.6,29.2,30.38,West,266,2.0,6.0,66,0.00,,CLR,0.00,VWS V14.01,2013-01-10 06:59:00,
2013-01-10 02:04:00,39.1,29.5,30.38,NW,314,3.0,4.0,68,0.00,,CLR,0.00,VWS V14.01,2013-01-10 07:04:00,
2013-01-10 02:09:00,39.1,29.5,30.38,WNW,302,3.0,7.0,68,0.00,,CLR,0.00,VWS V14.01,2013-01-10 07:09:00,
2013-01-10 02:14:00,39.0,29.4,30.38,WNW,290,0.0,5.0,68,0.00,,CLR,0.00,VWS V14.01,2013-01-10 07:14:00,
2013-01-10 02:20:00,38.5,29.2,30.39,WNW,295,1.0,4.0,69,0.00,,CLR,0.00,VWS V14.01,2013-01-10 07:20:00,
2013-01-10 02:25:00,38.2,28.9,30.39,West,281,1.0,3.0,69,0.00,,CLR,0.00,VWS V14.01,2013-01-10 07:25:00,
2013-01-10 02:30:00,38.1,29.2,30.39,West,274,0.0,2.0,70,0.00,,CLR,0.00,VWS V14.01,2013-01-10 07:30:00,
2013-01-10 02:35:00,37.9,29.0,30.39,WSW,258,0.0,1.0,70,0.00,,CLR,0.00,VWS V14.01,2013-01-10 07:35:00,
2013-01-10 02:40:00,37.8,28.9,30.40,West,259,0.0,0.0,70,0.00,,CLR,0.00,VWS V14.01,2013-01-10 07:40:00,
2013-01-10 02:45:00,37.6,28.7,30.40,WSW,255,0.0,1.0,70,0.00,,CLR,0.00,VWS V14.01,2013-01-10 07:45:00,
2013-01-10 02:50:00,37.2,28.7,30.40,WSW,255,0.0,1.0,71,0.00,,CLR,0.00,VWS V14.01,2013-01-10 07:50:00,
2013-01-10 02:55:00,37.0,28.5,30.40,West,264,0.0,0.0,71,0.00,,CLR,0.00,VWS V14.01,2013-01-10 07:55:00,
2013-01-10 03:00:00,36.7,28.2,30.41,West,263,0.0,0.0,71,0.00,,CLR,0.00,VWS V14.01,2013-01-10 08:00:00,
2013-01-10 03:05:00,36.9,28.4,30.41,WSW,257,0.0,0.0,71,0.00,,CLR,0.00,VWS V14.01,2013-01-10 08:05:00,
2013-01-10 03:10:00,37.3,28.4,30.41,West,274,0.0,2.0,70,0.00,,CLR,0.00,VWS V14.01,2013-01-10 08:10:00,
2013-01-10 03:15:00,37.8,28.6,30.41,West,276,2.0,4.0,69,0.00,,CLR,0.00,VWS V14.01,2013-01-10 08:15:00,
2013-01-10 03:20:00,38.3,28.7,30.41,NW,307,1.0,4.0,68,0.00,,CLR,0.00,VWS V14.01,2013-01-10 08:20:00,
2013-01-10 03:25:00,38.6,28.6,30.41,NW,316,3.0,5.0,67,0.00,,CLR,0.00,VWS V14.01,2013-01-10 08:25:00,
2013-01-10 03:30:00,38.7,28.7,30.41,WNW,295,5.0,6.0,67,0.00,,CLR,0.00,VWS V14.01,2013-01-10 08:30:00,
2013-01-10 03:35:00,38.8,28.4,30.41,WNW,294,5.0,5.0,66,0.00,,CLR,0.00,VWS V14.01,2013-01-10 08:35:00,
2013-01-10 03:41:00,38.8,28.8,30.41,NW,309,4.0,5.0,67,0.00,,CLR,0.00,VWS V14.01,2013-01-10 08:41:00,
2013-01-10 03:46:00,38.7,28.7,30.41,WNW,293,3.0,6.0,67,0.00,,CLR,0.00,VWS V14.01,2013-01-10 08:46:00,
2013-01-10 03:51:00,38.5,28.9,30.41,NW,321,2.0,5.0,68,0.00,,CLR,0.00,VWS V14.01,2013-01-10 08:51:00,
2013-01-10 03:56:00,38.4,28.8,30.41,NW,304,3.0,6.0,68,0.00,,CLR,0.00,VWS V14.01,2013-01-10 08:56:00,
2013-01-10 04:01:00,38.2,28.6,30.41,WNW,301,2.0,5.0,68,0.00,,CLR,0.00,VWS V14.01,2013-01-10 09:01:00,
2013-01-10 04:06:00,38.0,28.8,30.41,WNW,287,4.0,6.0,69,0.00,,CLR,0.00,VWS V14.01,2013-01-10 09:06:00,
2013-01-10 04:11:00,38.2,28.6,30.42,NW,318,5.0,7.0,68,0.00,,CLR,0.00,VWS V14.01,2013-01-10 09:11:00,
2013-01-10 04:16:00,38.3,28.7,30.42,North,8,2.0,4.0,68,0.00,,CLR,0.00,VWS V14.01,2013-01-10 09:16:00,
2013-01-10 04:21:00,38.4,28.8,30.42,WNW,293,2.0,6.0,68,0.00,,CLR,0.00,VWS V14.01,2013-01-10 09:21:00,
2013-01-10 04:26:00,38.1,28.5,30.42,WNW,284,3.0,3.0,68,0.00,,CLR,0.00,VWS V14.01,2013-01-10 09:26:00,
2013-01-10 04:31:00,38.0,28.8,30.42,WNW,288,5.0,5.0,69,0.00,,CLR,0.00,VWS V14.01,2013-01-10 09:31:00,
2013-01-10 04:36:00,38.3,28.7,30.42,NW,304,2.0,3.0,68,0.00,,CLR,0.00,VWS V14.01,2013-01-10 09:36:00,
2013-01-10 04:41:00,38.4,28.8,30.43,WNW,294,1.0,2.0,68,0.00,,CLR,0.00,VWS V14.01,2013-01-10 09:41:00,
2013-01-10 04:46:00,38.6,29.0,30.43,WNW,302,2.0,7.0,68,0.00,,CLR,0.00,VWS V14.01,2013-01-10 09:46:00,
2013-01-10 04:51:00,38.3,28.7,30.43,NW,316,2.0,2.0,68,0.00,,CLR,0.00,VWS V14.01,2013-01-10 09:51:00,
2013-01-10 04:56:00,38.0,28.8,30.43,NW,316,2.0,3.0,69,0.00,,CLR,0.00,VWS V14.01,2013-01-10 09:56:00,
2013-01-10 05:01:00,37.7,28.5,30.43,WNW,301,2.0,6.0,69,0.00,,CLR,0.00,VWS V14.01,2013-01-10 10:01:00,
2013-01-10 05:06:00,37.6,28.7,30.43,WNW,301,3.0,3.0,70,0.00,,CLR,0.00,VWS V14.01,2013-01-10 10:06:00,
2013-01-10 05:11:00,37.1,28.6,30.43,WNW,293,3.0,5.0,71,0.00,,CLR,0.00,VWS V14.01,2013-01-10 10:11:00,
2013-01-10 05:16:00,37.1,28.6,30.44,NW,308,1.0,6.0,71,0.00,,CLR,0.00,VWS V14.01,2013-01-10 10:16:00,
2013-01-10 05:21:00,37.2,28.7,30.44,WNW,287,3.0,5.0,71,0.00,,CLR,0.00,VWS V14.01,2013-01-10 10:21:00,
2013-01-10 05:26:00,37.3,28.8,30.44,WNW,290,2.0,4.0,71,0.00,,CLR,0.00,VWS V14.01,2013-01-10 10:26:00,
2013-01-10 05:31:00,37.3,28.8,30.44,NW,321,2.0,4.0,71,0.00,,CLR,0.00,VWS V14.01,2013-01-10 10:31:00,
2013-01-10 05:36:00,37.0,28.5,30.44,NW,322,3.0,6.0,71,0.00,,CLR,0.00,VWS V14.01,2013-01-10 10:36:00,
2013-01-10 05:41:00,36.5,28.4,30.44,NW,304,4.0,6.0,72,0.00,,CLR,0.00,VWS V14.01,2013-01-10 10:41:00,
2013-01-10 05:46:00,36.5,28.7,30.45,NW,325,3.0,8.0,73,0.00,,CLR,0.00,VWS V14.01,2013-01-10 10:46:00,
2013-01-10 05:51:00,36.7,28.5,30.45,WNW,301,5.0,7.0,72,0.00,,CLR,0.00,VWS V14.01,2013-01-10 10:51:00,
2013-01-10 05:56:00,36.8,28.6,30.45,WNW,298,3.0,6.0,72,0.00,,CLR,0.00,VWS V14.01,2013-01-10 10:56:00,
2013-01-10 06:01:00,36.8,28.6,30.45,NW,304,3.0,7.0,72,0.00,,CLR,0.00,VWS V14.01,2013-01-10 11:01:00,
2013-01-10 06:06:00,36.9,28.7,30.45,NW,305,3.0,8.0,72,0.00,,CLR,0.00,VWS V14.01,2013-01-10 11:06:00,
2013-01-10 06:11:00,36.9,28.7,30.46,West,278,5.0,6.0,72,0.00,,CLR,0.00,VWS V14.01,2013-01-10 11:11:00,
2013-01-10 06:16:00,37.1,28.9,30.46,WNW,303,5.0,9.0,72,0.00,,CLR,0.00,VWS V14.01,2013-01-10 11:16:00,
2013-01-10 06:21:00,37.0,28.8,30.46,NW,304,5.0,8.0,72,0.00,,CLR,0.00,VWS V14.01,2013-01-10 11:21:00,
2013-01-10 06:27:00,36.8,28.6,30.46,NW,323,7.0,7.0,72,0.00,,CLR,0.00,VWS V14.01,2013-01-10 11:27:00,
2013-01-10 06:32:00,36.7,28.9,30.47,WNW,293,2.0,9.0,73,0.00,,CLR,0.00,VWS V14.01,2013-01-10 11:32:00,
2013-01-10 06:37:00,36.6,28.8,30.47,WNW,289,2.0,7.0,73,0.00,,CLR,0.00,VWS V14.01,2013-01-10 11:37:00,
2013-01-10 06:42:00,36.5,28.7,30.47,NNW,330,3.0,5.0,73,0.00,,CLR,0.00,VWS V14.01,2013-01-10 11:42:00,
2013-01-10 06:47:00,36.4,28.6,30.48,NW,315,2.0,6.0,73,0.00,,CLR,0.00,VWS V14.01,2013-01-10 11:47:00,
2013-01-10 06:52:00,36.3,28.5,30.48,NW,316,2.0,5.0,73,0.00,,CLR,0.00,VWS V14.01,2013-01-10 11:52:00,
2013-01-10 06:57:00,36.1,28.6,30.48,NW,311,5.0,5.0,74,0.00,,CLR,0.00,VWS V14.01,2013-01-10 11:57:00,
2013-01-10 07:02:00,35.8,28.7,30.48,WNW,294,5.0,11.0,75,0.00,,CLR,0.00,VWS V14.01,2013-01-10 12:02:00,
2013-01-10 07:07:00,35.7,28.6,30.48,WNW,300,5.0,12.0,75,0.00,,CLR,0.00,VWS V14.01,2013-01-10 12:07:00,
2013-01-10 07:12:00,35.9,28.8,30.49,NW,310,5.0,13.0,75,0.00,,CLR,0.00,VWS V14.01,2013-01-10 12:12:00,
2013-01-10 07:17:00,36.0,28.9,30.49,WNW,289,5.0,11.0,75,0.00,,CLR,0.00,VWS V14.01,2013-01-10 12:17:00,
2013-01-10 07:22:00,36.0,28.9,30.48,WNW,283,6.0,11.0,75,0.00,,CLR,0.00,VWS V14.01,2013-01-10 12:22:00,
2013-01-10 07:28:00,36.2,28.7,30.48,NW,311,4.0,12.0,74,0.00,,CLR,0.00,VWS V14.01,2013-01-10 12:28:00,
2013-01-10 07:33:00,36.1,28.6,30.49,NNW,335,4.0,10.0,74,0.00,,CLR,0.00,VWS V14.01,2013-01-10 12:33:00,
2013-01-10 07:38:00,36.2,28.7,30.49,NW,316,2.0,14.0,74,0.00,,CLR,0.00,VWS V14.01,2013-01-10 12:38:00,
2013-01-10 07:43:00,36.0,28.5,30.49,West,274,6.0,7.0,74,0.00,,CLR,0.00,VWS V14.01,2013-01-10 12:43:00,
2013-01-10 07:48:00,35.9,28.8,30.49,NW,314,7.0,7.0,75,0.00,,CLR,0.00,VWS V14.01,2013-01-10 12:48:00,
2013-01-10 07:53:00,35.7,28.6,30.49,NW,308,1.0,7.0,75,0.00,,CLR,0.00,VWS V14.01,2013-01-10 12:53:00,
2013-01-10 07:58:00,35.7,28.6,30.50,WNW,288,3.0,5.0,75,0.00,,CLR,0.00,VWS V14.01,2013-01-10 12:58:00,
2013-01-10 08:03:00,35.7,28.6,30.50,West,266,2.0,4.0,75,0.00,,CLR,0.00,VWS V14.01,2013-01-10 13:03:00,
2013-01-10 08:08:00,35.7,28.6,30.50,NW,307,2.0,4.0,75,0.00,,CLR,0.00,VWS V14.01,2013-01-10 13:08:00,
2013-01-10 08:13:00,35.9,28.8,30.51,WNW,300,1.0,5.0,75,0.00,,CLR,0.00,VWS V14.01,2013-01-10 13:13:00,
2013-01-10 08:18:00,36.0,28.9,30.51,WNW,298,2.0,4.0,75,0.00,,CLR,0.00,VWS V14.01,2013-01-10 13:18:00,
2013-01-10 08:23:00,36.1,29.0,30.51,NW,316,2.0,6.0,75,0.00,,CLR,0.00,VWS V14.01,2013-01-10 13:23:00,
2013-01-10 08:28:00,36.3,29.1,30.51,WNW,293,2.0,3.0,75,0.00,,CLR,0.00,VWS V14.01,2013-01-10 13:28:00,
2013-01-10 08:33:00,36.4,29.2,30.51,NNW,333,3.0,4.0,75,0.00,,CLR,0.00,VWS V14.01,2013-01-10 13:33:00,
2013-01-10 08:38:00,36.4,29.2,30.51,WNW,300,3.0,5.0,75,0.00,,CLR,0.00,VWS V14.01,2013-01-10 13:38:00,
2013-01-10 08:43:00,36.4,29.6,30.51,NW,307,3.0,5.0,76,0.00,,CLR,0.00,VWS V14.01,2013-01-10 13:43:00,
2013-01-10 08:48:00,36.6,29.4,30.51,NNW,340,2.0,5.0,75,0.00,,CLR,0.00,VWS V14.01,2013-01-10 13:48:00,
2013-01-10 08:53:00,36.9,29.7,30.51,WNW,288,1.0,6.0,75,0.00,,CLR,0.00,VWS V14.01,2013-01-10 13:53:00,
2013-01-10 08:58:00,37.2,29.7,30.52,WNW,288,3.0,6.0,74,0.00,,CLR,0.00,VWS V14.01,2013-01-10 13:58:00,
2013-01-10 09:03:00,37.6,29.7,30.52,NW,307,4.0,7.0,73,0.00,,CLR,0.00,VWS V14.01,2013-01-10 14:03:00,
2013-01-10 09:08:00,38.1,30.2,30.52,WNW,301,1.0,2.0,73,0.00,,CLR,0.00,VWS V14.01,2013-01-10 14:08:00,
2013-01-10 09:14:00,38.4,29.8,30.52,West,278,4.0,5.0,71,0.00,,CLR,0.00,VWS V14.01,2013-01-10 14:14:00,
2013-01-10 09:19:00,38.6,30.0,30.52,North,351,3.0,7.0,71,0.00,,CLR,0.00,VWS V14.01,2013-01-10 14:19:00,
2013-01-10 09:24:00,38.9,30.0,30.53,WNW,293,0.0,6.0,70,0.00,,CLR,0.00,VWS V14.01,2013-01-10 14:24:00,
2013-01-10 09:29:00,39.2,30.2,30.53,NW,319,1.0,5.0,70,0.00,,CLR,0.00,VWS V14.01,2013-01-10 14:29:00,
2013-01-10 09:34:00,39.4,30.1,30.53,NW,318,3.0,5.0,69,0.00,,CLR,0.00,VWS V14.01,2013-01-10 14:34:00,
2013-01-10 09:39:00,39.7,30.7,30.53,WNW,302,2.0,5.0,70,0.00,,CLR,0.00,VWS V14.01,2013-01-10 14:39:00,
2013-01-10 09:44:00,40.0,30.7,30.54,WNW,298,5.0,5.0,69,0.00,,CLR,0.00,VWS V14.01,2013-01-10 14:44:00,
2013-01-10 09:49:00,40.0,30.3,30.54,NNW,347,5.0,7.0,68,0.00,,CLR,0.00,VWS V14.01,2013-01-10 14:49:00,
2013-01-10 09:54:00,40.1,30.0,30.55,NW,314,4.0,8.0,67,0.00,,CLR,0.00,VWS V14.01,2013-01-10 14:54:00,
2013-01-10 09:59:00,40.3,30.2,30.55,NW,314,3.0,8.0,67,0.00,,CLR,0.00,VWS V14.01,2013-01-10 14:59:00,
2013-01-10 10:04:00,40.5,30.4,30.55,NW,309,3.0,8.0,67,0.00,,CLR,0.00,VWS V14.01,2013-01-10 15:04:00,
2013-01-10 10:09:00,40.6,30.9,30.55,West,276,4.0,7.0,68,0.00,,CLR,0.00,VWS V14.01,2013-01-10 15:09:00,
2013-01-10 10:14:00,40.9,30.8,30.55,NW,323,3.0,7.0,67,0.00,,CLR,0.00,VWS V14.01,2013-01-10 15:14:00,
2013-01-10 10:19:00,41.1,30.2,30.56,WNW,288,4.0,11.0,65,0.00,,CLR,0.00,VWS V14.01,2013-01-10 15:19:00,
2013-01-10 10:24:00,41.2,30.7,30.56,NNW,336,3.0,8.0,66,0.00,,CLR,0.00,VWS V14.01,2013-01-10 15:24:00,
2013-01-10 10:29:00,41.2,30.3,30.56,WNW,290,7.0,10.0,65,0.00,,CLR,0.00,VWS V14.01,2013-01-10 15:29:00,
2013-01-10 10:34:00,41.2,30.3,30.56,WNW,302,1.0,6.0,65,0.00,,CLR,0.00,VWS V14.01,2013-01-10 15:34:00,
2013-01-10 10:39:00,41.3,30.1,30.56,WNW,291,3.0,9.0,64,0.00,,CLR,0.00,VWS V14.01,2013-01-10 15:39:00,
2013-01-10 10:44:00,41.5,31.0,30.55,WNW,285,0.0,7.0,66,0.00,,CLR,0.00,VWS V14.01,2013-01-10 15:44:00,
2013-01-10 10:50:00,41.5,30.2,30.55,WNW,289,5.0,8.0,64,0.00,,CLR,0.00,VWS V14.01,2013-01-10 15:50:00,
2013-01-10 10:55:00,41.4,30.1,30.55,WNW,294,5.0,10.0,64,0.00,,CLR,0.00,VWS V14.01,2013-01-10 15:55:00,
2013-01-10 11:00:00,41.6,30.3,30.55,NNW,333,6.0,9.0,64,0.00,,CLR,0.00,VWS V14.01,2013-01-10 16:00:00,
2013-01-10 11:05:00,41.9,30.6,30.55,WNW,296,2.0,8.0,64,0.00,,CLR,0.00,VWS V14.01,2013-01-10 16:05:00,
2013-01-10 11:10:00,42.2,30.5,30.55,NW,314,3.0,8.0,63,0.00,,CLR,0.00,VWS V14.01,2013-01-10 16:10:00,
2013-01-10 11:15:00,42.3,30.6,30.55,SW,218,3.0,9.0,63,0.00,,CLR,0.00,VWS V14.01,2013-01-10 16:15:00,
2013-01-10 11:20:00,42.2,30.5,30.55,NNW,338,4.0,9.0,63,0.00,,CLR,0.00,VWS V14.01,2013-01-10 16:20:00,
2013-01-10 11:25:00,42.3,30.6,30.54,NW,311,1.0,10.0,63,0.00,,CLR,0.00,VWS V14.01,2013-01-10 16:25:00,
2013-01-10 11:30:00,42.6,30.5,30.54,NW,308,5.0,9.0,62,0.00,,CLR,0.00,VWS V14.01,2013-01-10 16:30:00,
2013-01-10 11:35:00,42.5,30.8,30.54,WNW,300,6.0,8.0,63,0.00,,CLR,0.00,VWS V14.01,2013-01-10 16:35:00,
2013-01-10 11:40:00,42.9,31.2,30.53,NNW,332,5.0,9.0,63,0.00,,CLR,0.00,VWS V14.01,2013-01-10 16:40:00,
2013-01-10 11:45:00,42.7,30.6,30.53,WNW,295,4.0,10.0,62,0.00,,CLR,0.00,VWS V14.01,2013-01-10 16:45:00,
2013-01-10 11:50:00,43.1,30.6,30.52,WNW,295,5.0,9.0,61,0.00,,CLR,0.00,VWS V14.01,2013-01-10 16:50:00,
2013-01-10 11:55:00,43.3,31.2,30.52,NNW,341,6.0,6.0,62,0.00,,CLR,0.00,VWS V14.01,2013-01-10 16:55:00,
2013-01-10 12:00:00,43.3,30.8,30.52,WNW,285,4.0,8.0,61,0.00,,CLR,0.00,VWS V14.01,2013-01-10 17:00:00,
2013-01-10 12:05:00,43.4,30.9,30.52,West,278,3.0,6.0,61,0.00,,CLR,0.00,VWS V14.01,2013-01-10 17:05:00,
2013-01-10 12:10:00,43.5,30.5,30.52,WNW,296,3.0,9.0,60,0.00,,CLR,0.00,VWS V14.01,2013-01-10 17:10:00,
2013-01-10 12:15:00,43.7,31.1,30.51,WNW,293,4.0,10.0,61,0.00,,CLR,0.00,VWS V14.01,2013-01-10 17:15:00,
2013-01-10 12:20:00,43.7,30.7,30.51,WNW,298,4.0,9.0,60,0.00,,CLR,0.00,VWS V14.01,2013-01-10 17:20:00,
2013-01-10 12:25:00,43.7,30.7,30.51,West,281,3.0,8.0,60,0.00,,CLR,0.00,VWS V14.01,2013-01-10 17:25:00,
2013-01-10 12:30:00,43.8,31.2,30.51,WNW,293,3.0,7.0,61,0.00,,CLR,0.00,VWS V14.01,2013-01-10 17:30:00,
2013-01-10 12:35:00,43.9,31.3,30.51,NW,304,1.0,6.0,61,0.00,,CLR,0.00,VWS V14.01,2013-01-10 17:35:00,
2013-01-10 12:40:00,43.9,30.9,30.51,WNW,289,4.0,7.0,60,0.00,,CLR,0.00,VWS V14.01,2013-01-10 17:40:00,
2013-01-10 12:45:00,43.9,30.5,30.51,NW,305,4.0,8.0,59,0.00,,CLR,0.00,VWS V14.01,2013-01-10 17:45:00,
2013-01-10 12:50:00,44.4,31.0,30.51,NW,308,3.0,6.0,59,0.00,,CLR,0.00,VWS V14.01,2013-01-10 17:50:00,
2013-01-10 12:55:00,44.6,31.2,30.51,WNW,301,4.0,9.0,59,0.00,,CLR,0.00,VWS V14.01,2013-01-10 17:55:00,
2013-01-10 13:00:00,44.5,31.1,30.51,WNW,302,5.0,8.0,59,0.00,,CLR,0.00,VWS V14.01,2013-01-10 18:00:00,
2013-01-10 13:05:00,44.1,30.3,30.51,NNE,15,3.0,3.0,58,0.00,,CLR,0.00,VWS V14.01,2013-01-10 18:05:00,
2013-01-10 13:10:00,44.2,30.8,30.51,WNW,300,4.0,5.0,59,0.00,,CLR,0.00,VWS V14.01,2013-01-10 18:10:00,
2013-01-10 13:15:00,44.2,30.8,30.51,WNW,293,6.0,8.0,59,0.00,,CLR,0.00,VWS V14.01,2013-01-10 18:15:00,
2013-01-10 13:20:00,44.2,30.8,30.50,WNW,299,4.0,6.0,59,0.00,,CLR,0.00,VWS V14.01,2013-01-10 18:20:00,
2013-01-10 13:25:00,44.5,31.5,30.50,WNW,285,1.0,3.0,60,0.00,,CLR,0.00,VWS V14.01,2013-01-10 18:25:00,
2013-01-10 13:30:00,44.7,31.3,30.50,WNW,298,5.0,9.0,59,0.00,,CLR,0.00,VWS V14.01,2013-01-10 18:30:00,
2013-01-10 13:35:00,44.7,31.3,30.50,West,277,3.0,5.0,59,0.00,,CLR,0.00,VWS V14.01,2013-01-10 18:35:00,
2013-01-10 13:40:00,45.0,31.1,30.50,NW,305,4.0,6.0,58,0.00,,CLR,0.00,VWS V14.01,2013-01-10 18:40:00,
2013-01-10 13:45:00,45.0,31.1,30.50,West,262,4.0,6.0,58,0.00,,CLR,0.00,VWS V14.01,2013-01-10 18:45:00,
2013-01-10 13:50:00,45.1,30.8,30.50,WNW,285,3.0,4.0,57,0.00,,CLR,0.00,VWS V14.01,2013-01-10 18:50:00,
2013-01-10 13:55:00,45.4,31.1,30.50,NNW,335,7.0,7.0,57,0.00,,CLR,0.00,VWS V14.01,2013-01-10 18:55:00,
2013-01-10 14:00:00,45.4,31.1,30.50,NW,305,4.0,6.0,57,0.00,,CLR,0.00,VWS V14.01,2013-01-10 19:00:00,
2013-01-10 14:05:00,45.3,31.4,30.50,NW,308,2.0,2.0,58,0.00,,CLR,0.00,VWS V14.01,2013-01-10 19:05:00,
2013-01-10 14:10:00,45.5,31.6,30.51,West,266,3.0,3.0,58,0.00,,CLR,0.00,VWS V14.01,2013-01-10 19:10:00,
2013-01-10 14:15:00,45.8,31.9,30.51,WNW,302,3.0,3.0,58,0.00,,CLR,0.00,VWS V14.01,2013-01-10 19:15:00,
2013-01-10 14:20:00,46.1,31.7,30.51,WNW,298,6.0,6.0,57,0.00,,CLR,0.00,VWS V14.01,2013-01-10 19:20:00,
2013-01-10 14:25:00,46.0,32.1,30.51,West,269,1.0,4.0,58,0.00,,CLR,0.00,VWS V14.01,2013-01-10 19:25:00,
2013-01-10 14:30:00,46.0,31.2,30.51,WNW,302,3.0,3.0,56,0.00,,CLR,0.00,VWS V14.01,2013-01-10 19:30:00,
2013-01-10 14:36:00,46.3,31.9,30.51,West,271,2.0,2.0,57,0.00,,CLR,0.00,VWS V14.01,2013-01-10 19:36:00,
2013-01-10 14:41:00,46.3,31.5,30.51,West,277,5.0,5.0,56,0.00,,CLR,0.00,VWS V14.01,2013-01-10 19:41:00,
2013-01-10 14:46:00,46.3,31.9,30.51,WNW,298,4.0,7.0,57,0.00,,CLR,0.00,VWS V14.01,2013-01-10 19:46:00,
2013-01-10 14:51:00,46.1,31.7,30.51,West,266,4.0,5.0,57,0.00,,CLR,0.00,VWS V14.01,2013-01-10 19:51:00,
2013-01-10 14:56:00,45.9,31.5,30.51,WNW,297,5.0,5.0,57,0.00,,CLR,0.00,VWS V14.01,2013-01-10 19:56:00,
2013-01-10 15:01:00,46.0,31.2,30.50,West,277,1.0,3.0,56,0.00,,CLR,0.00,VWS V14.01,2013-01-10 20:01:00,
2013-01-10 15:06:00,46.0,31.6,30.51,WNW,285,3.0,3.0,57,0.00,,CLR,0.00,VWS V14.01,2013-01-10 20:06:00,
2013-01-10 15:11:00,45.9,31.1,30.50,WNW,298,3.0,5.0,56,0.00,,CLR,0.00,VWS V14.01,2013-01-10 20:11:00,
2013-01-10 15:16:00,46.0,31.6,30.51,WNW,289,4.0,5.0,57,0.00,,CLR,0.00,VWS V14.01,2013-01-10 20:16:00,
2013-01-10 15:21:00,46.1,30.9,30.51,WNW,294,4.0,4.0,55,0.00,,CLR,0.00,VWS V14.01,2013-01-10 20:21:00,
2013-01-10 15:26:00,46.3,31.5,30.51,WNW,302,0.0,2.0,56,0.00,,CLR,0.00,VWS V14.01,2013-01-10 20:26:00,
2013-01-10 15:31:00,47.0,32.1,30.51,NW,308,3.0,3.0,56,0.00,,CLR,0.00,VWS V14.01,2013-01-10 20:31:00,
2013-01-10 15:36:00,46.8,31.0,30.51,WNW,284,2.0,5.0,54,0.00,,CLR,0.00,VWS V14.01,2013-01-10 20:36:00,
2013-01-10 15:41:00,46.5,31.7,30.51,WNW,282,1.0,4.0,56,0.00,,CLR,0.00,VWS V14.01,2013-01-10 20:41:00,
2013-01-10 15:46:00,46.3,31.0,30.51,NNW,335,2.0,3.0,55,0.00,,CLR,0.00,VWS V14.01,2013-01-10 20:46:00,
2013-01-10 15:51:00,46.1,31.3,30.51,West,259,1.0,3.0,56,0.00,,CLR,0.00,VWS V14.01,2013-01-10 20:51:00,
2013-01-10 15:56:00,45.6,31.3,30.50,WNW,295,3.0,3.0,57,0.00,,CLR,0.00,VWS V14.01,2013-01-10 20:56:00,
2013-01-10 16:01:00,45.5,31.2,30.51,WNW,302,1.0,4.0,57,0.00,,CLR,0.00,VWS V14.01,2013-01-10 21:01:00,
2013-01-10 16:06:00,45.3,31.4,30.51,WNW,298,3.0,4.0,58,0.00,,CLR,0.00,VWS V14.01,2013-01-10 21:06:00,
2013-01-10 16:11:00,45.0,31.1,30.51,WNW,287,2.0,2.0,58,0.00,,CLR,0.00,VWS V14.01,2013-01-10 21:11:00,
2013-01-10 16:17:00,44.6,31.2,30.51,WNW,295,1.0,2.0,59,0.00,,CLR,0.00,VWS V14.01,2013-01-10 21:17:00,
2013-01-10 16:22:00,44.1,31.1,30.51,WNW,298,2.0,2.0,60,0.00,,CLR,0.00,VWS V14.01,2013-01-10 21:22:00,
2013-01-10 16:27:00,43.8,31.2,30.51,WNW,285,0.0,0.0,61,0.00,,CLR,0.00,VWS V14.01,2013-01-10 21:27:00,
2013-01-10 16:32:00,43.5,31.4,30.51,WNW,285,0.0,0.0,62,0.00,,CLR,0.00,VWS V14.01,2013-01-10 21:32:00,
2013-01-10 16:37:00,42.9,30.8,30.51,WNW,285,0.0,0.0,62,0.00,,CLR,0.00,VWS V14.01,2013-01-10 21:37:00,
2013-01-10 16:42:00,42.4,30.7,30.51,WNW,285,0.0,0.0,63,0.00,,CLR,0.00,VWS V14.01,2013-01-10 21:42:00,
2013-01-10 16:47:00,42.0,30.7,30.51,WNW,285,0.0,0.0,64,0.00,,CLR,0.00,VWS V14.01,2013-01-10 21:47:00,
2013-01-10 16:52:00,41.6,30.7,30.51,WNW,285,0.0,0.0,65,0.00,,CLR,0.00,VWS V14.01,2013-01-10 21:52:00,
2013-01-10 16:57:00,41.0,30.5,30.51,WNW,285,0.0,0.0,66,0.00,,CLR,0.00,VWS V14.01,2013-01-10 21:57:00,
2013-01-10 17:02:00,40.4,30.3,30.51,NW,319,0.0,0.0,67,0.00,,CLR,0.00,VWS V14.01,2013-01-10 22:02:00,
2013-01-10 17:07:00,40.4,30.0,30.51,NNW,328,0.0,0.0,66,0.00,,CLR,0.00,VWS V14.01,2013-01-10 22:07:00,
2013-01-10 17:12:00,40.2,30.1,30.51,NNW,328,0.0,0.0,67,0.00,,CLR,0.00,VWS V14.01,2013-01-10 22:12:00,
2013-01-10 17:17:00,39.3,29.6,30.52,NNW,328,0.0,0.0,68,0.00,,CLR,0.00,VWS V14.01,2013-01-10 22:17:00,
2013-01-10 17:22:00,39.2,29.9,30.51,NNW,328,0.0,0.0,69,0.00,,CLR,0.00,VWS V14.01,2013-01-10 22:22:00,
2013-01-10 17:27:00,39.5,30.2,30.51,North,4,0.0,1.0,69,0.00,,CLR,0.00,VWS V14.01,2013-01-10 22:27:00,
2013-01-10 17:32:00,39.8,29.8,30.51,East,101,0.0,1.0,67,0.00,,CLR,0.00,VWS V14.01,2013-01-10 22:32:00,
2013-01-10 17:37:00,38.1,29.2,30.50,ESE,117,1.0,1.0,70,0.00,,CLR,0.00,VWS V14.01,2013-01-10 22:37:00,
2013-01-10 17:42:00,38.3,29.4,30.50,NNW,335,0.0,1.0,70,0.00,,CLR,0.00,VWS V14.01,2013-01-10 22:42:00,
2013-01-10 17:47:00,38.9,30.0,30.50,NW,321,0.0,2.0,70,0.00,,CLR,0.00,VWS V14.01,2013-01-10 22:47:00,
2013-01-10 17:52:00,38.8,29.5,30.51,East,87,1.0,1.0,69,0.00,,CLR,0.00,VWS V14.01,2013-01-10 22:52:00,
2013-01-10 17:57:00,38.6,30.0,30.51,East,90,0.0,1.0,71,0.00,,CLR,0.00,VWS V14.01,2013-01-10 22:57:00,
2013-01-10 18:02:00,38.7,29.8,30.50,East,87,0.0,1.0,70,0.00,,CLR,0.00,VWS V14.01,2013-01-10 23:02:00,
2013-01-10 18:07:00,38.7,29.8,30.50,ENE,61,0.0,0.0,70,0.00,,CLR,0.00,VWS V14.01,2013-01-10 23:07:00,
2013-01-10 18:12:00,38.8,29.5,30.50,ENE,60,0.0,0.0,69,0.00,,CLR,0.00,VWS V14.01,2013-01-10 23:12:00,
2013-01-10 18:17:00,38.9,30.0,30.51,WNW,285,0.0,0.0,70,0.00,,CLR,0.00,VWS V14.01,2013-01-10 23:17:00,
2013-01-10 18:22:00,39.0,30.4,30.51,West,276,0.0,1.0,71,0.00,,CLR,0.00,VWS V14.01,2013-01-10 23:22:00,
2013-01-10 18:27:00,38.4,30.2,30.51,West,277,0.0,0.0,72,0.00,,CLR,0.00,VWS V14.01,2013-01-10 23:27:00,
2013-01-10 18:32:00,38.5,29.9,30.51,West,277,0.0,0.0,71,0.00,,CLR,0.00,VWS V14.01,2013-01-10 23:32:00,
2013-01-10 18:38:00,38.2,30.3,30.51,West,276,0.0,0.0,73,0.00,,CLR,0.00,VWS V14.01,2013-01-10 23:38:00,
2013-01-10 18:43:00,37.9,30.0,30.51,West,276,1.0,1.0,73,0.00,,CLR,0.00,VWS V14.01,2013-01-10 23:43:00,
2013-01-10 18:48:00,38.0,30.1,30.51,West,276,0.0,0.0,73,0.00,,CLR,0.00,VWS V14.01,2013-01-10 23:48:00,
2013-01-10 18:53:00,37.3,30.1,30.51,West,280,0.0,0.0,75,0.00,,CLR,0.00,VWS V14.01,2013-01-10 23:53:00,
2013-01-10 18:58:00,37.0,30.1,30.51,West,280,0.0,0.0,76,0.00,,CLR,0.00,VWS V14.01,2013-01-10 23:58:00,
2013-01-10 19:03:00,36.8,29.6,30.50,West,280,0.0,0.0,75,0.00,,CLR,0.00,VWS V14.01,2013-01-11 00:03:00,
2013-01-10 19:08:00,36.9,30.0,30.51,West,281,1.0,1.0,76,0.00,,CLR,0.00,VWS V14.01,2013-01-11 00:08:00,
2013-01-10 19:13:00,36.7,30.5,30.50,NW,312,0.0,2.0,78,0.00,,CLR,0.00,VWS V14.01,2013-01-11 00:13:00,
2013-01-10 19:18:00,36.5,30.0,30.50,SSW,203,0.0,0.0,77,0.00,,CLR,0.00,VWS V14.01,2013-01-11 00:18:00,
2013-01-10 19:23:00,36.1,30.2,30.51,ESE,120,0.0,1.0,79,0.00,,CLR,0.00,VWS V14.01,2013-01-11 00:23:00,
2013-01-10 19:28:00,36.0,30.1,30.51,ESE,120,0.0,0.0,79,0.00,,CLR,0.00,VWS V14.01,2013-01-11 00:28:00,
2013-01-10 19:33:00,35.7,30.1,30.51,SE,136,0.0,0.0,80,0.00,,CLR,0.00,VWS V14.01,2013-01-11 00:33:00,
2013-01-10 19:39:00,36.0,29.8,30.51,SE,135,0.0,0.0,78,0.00,,CLR,0.00,VWS V14.01,2013-01-11 00:39:00,
2013-01-10 19:44:00,36.5,29.7,30.51,SE,135,0.0,0.0,76,0.00,,CLR,0.00,VWS V14.01,2013-01-11 00:44:00,
2013-01-10 19:49:00,37.2,30.4,30.51,WSW,250,0.0,1.0,76,0.00,,CLR,0.00,VWS V14.01,2013-01-11 00:49:00,
2013-01-10 19:54:00,37.3,30.1,30.50,WSW,250,0.0,0.0,75,0.00,,CLR,0.00,VWS V14.01,2013-01-11 00:54:00,
2013-01-10 19:59:00,36.3,30.4,30.50,SE,146,0.0,1.0,79,0.00,,CLR,0.00,VWS V14.01,2013-01-11 00:59:00,
2013-01-10 20:04:00,36.0,30.1,30.51,SSE,147,0.0,0.0,79,0.00,,CLR,0.00,VWS V14.01,2013-01-11 01:04:00,
2013-01-10 20:09:00,36.2,30.0,30.51,SE,131,0.0,0.0,78,0.00,,CLR,0.00,VWS V14.01,2013-01-11 01:09:00,
2013-01-10 20:14:00,36.3,30.1,30.51,SE,131,0.0,0.0,78,0.00,,CLR,0.00,VWS V14.01,2013-01-11 01:14:00,
2013-01-10 20:19:00,36.5,30.0,30.50,SE,131,0.0,0.0,77,0.00,,CLR,0.00,VWS V14.01,2013-01-11 01:19:00,
2013-01-10 20:24:00,36.9,29.7,30.50,SE,131,0.0,0.0,75,0.00,,CLR,0.00,VWS V14.01,2013-01-11 01:24:00,
2013-01-10 20:29:00,37.3,29.8,30.50,ENE,75,0.0,1.0,74,0.00,,CLR,0.00,VWS V14.01,2013-01-11 01:29:00,
2013-01-10 20:35:00,37.9,29.7,30.51,East,101,0.0,1.0,72,0.00,,CLR,0.00,VWS V14.01,2013-01-11 01:35:00,
2013-01-10 20:40:00,38.3,29.4,30.50,East,101,0.0,0.0,70,0.00,,CLR,0.00,VWS V14.01,2013-01-11 01:40:00,
2013-01-10 20:45:00,37.8,30.6,30.51,East,101,0.0,0.0,75,0.00,,CLR,0.00,VWS V14.01,2013-01-11 01:45:00,
2013-01-10 20:50:00,36.6,30.1,30.50,WNW,295,0.0,1.0,77,0.00,,CLR,0.00,VWS V14.01,2013-01-11 01:50:00,
2013-01-10 20:55:00,36.4,30.5,30.50,WNW,283,0.0,1.0,79,0.00,,CLR,0.00,VWS V14.01,2013-01-11 01:55:00,
2013-01-10 21:00:00,36.2,30.3,30.51,WNW,284,0.0,1.0,79,0.00,,CLR,0.00,VWS V14.01,2013-01-11 02:00:00,
2013-01-10 21:05:00,36.3,30.1,30.50,NE,43,0.0,1.0,78,0.00,,CLR,0.00,VWS V14.01,2013-01-11 02:05:00,
2013-01-10 21:10:00,36.1,29.6,30.50,NE,47,0.0,1.0,77,0.00,,CLR,0.00,VWS V14.01,2013-01-11 02:10:00,
2013-01-10 21:15:00,36.2,29.4,30.50,ENE,57,0.0,1.0,76,0.00,,CLR,0.00,VWS V14.01,2013-01-11 02:15:00,
2013-01-10 21:20:00,36.6,29.4,30.50,ENE,58,0.0,1.0,75,0.00,,CLR,0.00,VWS V14.01,2013-01-11 02:20:00,
2013-01-10 21:25:00,37.1,29.6,30.50,ESE,103,0.0,0.0,74,0.00,,CLR,0.00,VWS V14.01,2013-01-11 02:25:00,
2013-01-10 21:30:00,37.4,29.5,30.51,ESE,103,0.0,0.0,73,0.00,,CLR,0.00,VWS V14.01,2013-01-11 02:30:00,
2013-01-10 21:35:00,37.3,29.8,30.52,ESE,103,0.0,0.0,74,0.00,,CLR,0.00,VWS V14.01,2013-01-11 02:35:00,
2013-01-10 21:40:00,36.8,30.0,30.52,ESE,103,0.0,0.0,76,0.00,,CLR,0.00,VWS V14.01,2013-01-11 02:40:00,
2013-01-10 21:45:00,36.1,29.9,30.52,NNE,32,0.0,0.0,78,0.00,,CLR,0.00,VWS V14.01,2013-01-11 02:45:00,
2013-01-10 21:51:00,36.1,30.2,30.52,NNE,30,0.0,0.0,79,0.00,,CLR,0.00,VWS V14.01,2013-01-11 02:51:00,
2013-01-10 21:56:00,35.9,30.0,30.52,East,93,1.0,1.0,79,0.00,,CLR,0.00,VWS V14.01,2013-01-11 02:56:00,
2013-01-10 22:01:00,35.5,29.6,30.52,East,81,0.0,0.0,79,0.00,,CLR,0.00,VWS V14.01,2013-01-11 03:01:00,
2013-01-10 22:06:00,35.6,29.4,30.52,East,81,0.0,0.0,78,0.00,,CLR,0.00,VWS V14.01,2013-01-11 03:06:00,
2013-01-10 22:11:00,36.0,29.5,30.52,East,88,0.0,0.0,77,0.00,,CLR,0.00,VWS V14.01,2013-01-11 03:11:00,
2013-01-10 22:16:00,36.1,29.3,30.52,ESE,103,0.0,1.0,76,0.00,,CLR,0.00,VWS V14.01,2013-01-11 03:16:00,
2013-01-10 22:21:00,37.1,29.3,30.52,NE,50,2.0,3.0,73,0.00,,CLR,0.00,VWS V14.01,2013-01-11 03:21:00,
2013-01-10 22:26:00,37.9,29.4,30.52,West,273,0.0,2.0,71,0.00,,CLR,0.00,VWS V14.01,2013-01-11 03:26:00,
2013-01-10 22:31:00,38.0,29.5,30.51,WSW,255,0.0,1.0,71,0.00,,CLR,0.00,VWS V14.01,2013-01-11 03:31:00,
2013-01-10 22:36:00,37.9,29.4,30.51,WSW,257,0.0,1.0,71,0.00,,CLR,0.00,VWS V14.01,2013-01-11 03:36:00,
2013-01-10 22:41:00,37.8,29.3,30.51,NW,315,0.0,1.0,71,0.00,,CLR,0.00,VWS V14.01,2013-01-11 03:41:00,
2013-01-10 22:46:00,37.7,29.2,30.51,ENE,78,1.0,1.0,71,0.00,,CLR,0.00,VWS V14.01,2013-01-11 03:46:00,
2013-01-10 22:51:00,38.0,29.5,30.50,East,81,1.0,2.0,71,0.00,,CLR,0.00,VWS V14.01,2013-01-11 03:51:00,
2013-01-10 22:56:00,37.9,29.4,30.50,East,86,0.0,1.0,71,0.00,,CLR,0.00,VWS V14.01,2013-01-11 03:56:00,
2013-01-10 23:01:00,38.0,29.1,30.50,East,94,0.0,1.0,70,0.00,,CLR,0.00,VWS V14.01,2013-01-11 04:01:00,
2013-01-10 23:06:00,37.7,29.2,30.49,East,101,0.0,1.0,71,0.00,,CLR,0.00,VWS V14.01,2013-01-11 04:06:00,
2013-01-10 23:11:00,37.6,29.1,30.49,East,85,1.0,1.0,71,0.00,,CLR,0.00,VWS V14.01,2013-01-11 04:11:00,
2013-01-10 23:16:00,37.8,29.3,30.49,East,91,0.0,1.0,71,0.00,,CLR,0.00,VWS V14.01,2013-01-11 04:16:00,
2013-01-10 23:21:00,37.8,29.3,30.49,East,92,2.0,2.0,71,0.00,,CLR,0.00,VWS V14.01,2013-01-11 04:21:00,
2013-01-10 23:26:00,37.8,29.3,30.48,ESE,103,3.0,5.0,71,0.00,,CLR,0.00,VWS V14.01,2013-01-11 04:26:00,
2013-01-10 23:31:00,37.9,29.4,30.49,ESE,108,2.0,4.0,71,0.00,,CLR,0.00,VWS V14.01,2013-01-11 04:31:00,
2013-01-10 23:37:00,37.8,29.3,30.49,East,92,2.0,3.0,71,0.00,,CLR,0.00,VWS V14.01,2013-01-11 04:37:00,
2013-01-10 23:42:00,37.8,28.9,30.49,East,96,0.0,1.0,70,0.00,,CLR,0.00,VWS V14.01,2013-01-11 04:42:00,
2013-01-10 23:47:00,37.7,29.2,30.48,East,96,0.0,0.0,71,0.00,,CLR,0.00,VWS V14.01,2013-01-11 04:47:00,
2013-01-10 23:52:00,37.6,29.1,30.48,East,92,1.0,1.0,71,0.00,,CLR,0.00,VWS V14.01,2013-01-11 04:52:00,
2013-01-10 23:57:00,37.4,29.2,30.48,East,96,0.0,2.0,72,0.00,,CLR,0.00,VWS V14.01,2013-01-11 04:57:00,